AEHF-6 (USA 298)

Last updated on Sun Dec 14 2025 00:02:53 GMT+0000 (Coordinated Universal Time)

1 45465U 20022B 25347.19072571 -.00000286 00000+0 00000+0 0 9998 2 45465 2.9584 299.2787 0048312 8.3039 340.9268 1.00268134 21144
UTC large
Height (km)
Speed (km/s)
/
Latitude / Longitude
Inclination (degrees)
Orbital Period (minutes)
Azimuth
Elevation
Range (km)
Doppler Factor

Next 0 passes for location: London (51.5072 / 0.1276)

Sorry there are no passes over London.